This demonstration page uses our WeatherBlox Daily Observations layout. Learn more.

Left ArrowRight Arrow

Hourly Observations for December 24, 2020

Temp ( °F °C ) Dew Point ( °F °C ) Humidity (%) Winds ( mph kmh ) Pressure ( in mb ) Visibility ( mi km ) Precip ( " mm )
12:15 am 00:15 Cloudy 46 8 46 8 100 100 SW 12 19 29.66 1004 5 8.0467 N/A
12:35 am 00:35 Cloudy 46 8 46 8 100 100 SW 12 19 29.67 1005 5 8.0467 N/A
12:55 am 00:55 Cloudy 41 5 41 5 100 100 W 18 30 29.7 1006 5 8.0467 N/A
1:15 am 01:15 Cloudy 39 4 39 4 100 100 W 16 26 29.71 1006 7 11.26538 N/A
1:35 am 01:35 Cloudy 37 3 37 3 100 100 W 17 28 29.7 1006 5 8.0467 N/A
1:55 am 01:55 Cloudy 37 3 37 3 100 100 W 17 28 29.7 1006 10 16.0934 N/A
2:15 am 02:15 Cloudy 37 3 37 3 100 100 W 20 31 29.72 1007 10 16.0934 N/A
2:35 am 02:35 Cloudy 34 1 34 1 100 100 W 23 37 29.73 1007 10 16.0934 N/A
2:55 am 02:55 Cloudy 34 1 32 0 93 93 W 21 33 29.75 1007 10 16.0934 N/A
3:15 am 03:15 Cloudy 32 0 32 0 100 100 W 16 26 29.75 1008 10 16.0934 N/A
3:35 am 03:35 Cloudy 32 0 30 -1 93 93 W 16 26 29.75 1008 10 16.0934 N/A
3:55 am 03:55 Mostly Cloudy 30 -1 30 -1 100 100 W 24 39 29.77 1008 10 16.0934 N/A
4:15 am 04:15 Cloudy 30 -1 28 -2 93 93 W 18 30 29.79 1009 10 16.0934 N/A
4:35 am 04:35 Cloudy 28 -2 27 -3 93 93 W 22 35 29.79 1009 10 16.0934 N/A
4:55 am 04:55 Cloudy 28 -2 27 -3 93 93 WSW 17 28 29.79 1009 10 16.0934 N/A
5:15 am 05:15 Cloudy 27 -3 25 -4 93 93 WSW 22 35 29.82 1010 10 16.0934 N/A
5:35 am 05:35 Cloudy 27 -3 23 -5 86 86 WSW 17 28 29.82 1010 10 16.0934 N/A
5:55 am 05:55 Cloudy 27 -3 23 -5 86 86 WSW 17 28 29.83 1010 10 16.0934 N/A
6:15 am 06:15 Cloudy 27 -3 23 -5 86 86 W 16 26 29.83 1010 10 16.0934 N/A
6:35 am 06:35 Cloudy 25 -4 21 -6 86 86 W 21 33 29.82 1010 10 16.0934 N/A
6:55 am 06:55 Cloudy 25 -4 19 -7 80 80 WSW 18 30 29.84 1010 10 16.0934 N/A
7:15 am 07:15 Cloudy 23 -5 21 -6 93 93 W 21 33 29.84 1011 10 16.0934 N/A
7:35 am 07:35 Partly Cloudy 21 -6 18 -8 86 86 W 16 26 29.86 1011 10 16.0934 N/A
7:55 am 07:55 Clear 21 -6 18 -8 86 86 W 17 28 29.86 1011 10 16.0934 N/A
8:15 am 08:15 Mostly Cloudy 21 -6 18 -8 86 86 WSW 16 26 29.88 1012 10 16.0934 N/A
8:35 am 08:35 Cloudy 23 -5 19 -7 86 86 W 17 28 29.88 1012 10 16.0934 N/A
8:55 am 08:55 Cloudy 23 -5 19 -7 86 86 W 17 28 29.87 1012 10 16.0934 N/A
9:15 am 09:15 Cloudy 23 -5 19 -7 86 86 W 14 22 29.87 1012 10 16.0934 N/A
9:35 am 09:35 Cloudy 23 -5 21 -6 93 93 W 21 33 29.87 1012 10 16.0934 N/A
9:55 am 09:55 Cloudy 21 -6 18 -8 86 86 W 16 26 29.89 1012 10 16.0934 N/A
10:15 am 10:15 Cloudy 21 -6 18 -8 86 86 W 22 35 29.89 1012 10 16.0934 N/A
10:35 am 10:35 Cloudy 21 -6 18 -8 86 86 W 20 31 29.9 1012 10 16.0934 N/A
10:55 am 10:55 Cloudy 21 -6 18 -8 86 86 W 18 30 29.9 1012 10 16.0934 N/A
11:15 am 11:15 Cloudy 21 -6 18 -8 86 86 W 16 26 29.89 1012 10 16.0934 N/A
11:35 am 11:35 Cloudy 23 -5 18 -8 80 80 W 20 31 29.88 1012 10 16.0934 N/A
11:55 am 11:55 Cloudy 21 -6 18 -8 86 86 W 16 26 29.89 1012 10 16.0934 N/A
12:15 pm 12:15 Cloudy 21 -6 18 -8 86 86 W 17 28 29.88 1012 7 11.26538 N/A
12:35 pm 12:35 Cloudy 21 -6 18 -8 86 86 W 15 24 29.87 1011 7 11.26538 N/A
12:55 pm 12:55 Cloudy 21 -6 16 -9 80 80 W 18 30 29.87 1011 10 16.0934 N/A
1:15 pm 13:15 Cloudy 21 -6 18 -8 86 86 W 17 28 29.86 1011 7 11.26538 N/A
1:35 pm 13:35 Cloudy 21 -6 18 -8 86 86 W 16 26 29.86 1011 10 16.0934 N/A
1:55 pm 13:55 Cloudy 21 -6 16 -9 80 80 W 17 28 29.86 1011 10 16.0934 N/A
2:15 pm 14:15 Cloudy 21 -6 16 -9 80 80 W 12 19 29.86 1011 10 16.0934 N/A
2:35 pm 14:35 Cloudy 21 -6 16 -9 80 80 W 16 26 29.86 1011 7 11.26538 N/A
2:55 pm 14:55 Cloudy 19 -7 18 -8 93 93 W 14 22 29.86 1011 5 8.0467 N/A
3:15 pm 15:15 Cloudy 19 -7 16 -9 86 86 WNW 15 24 29.87 1012 10 16.0934 N/A
3:35 pm 15:35 Cloudy 19 -7 16 -9 86 86 W 13 20 29.87 1012 7 11.26538 N/A
3:55 pm 15:55 Cloudy 19 -7 16 -9 86 86 W 15 24 29.88 1012 7 11.26538 N/A
4:15 pm 16:15 Cloudy 18 -8 16 -9 93 93 WNW 14 22 29.88 1012 4 6.43736 N/A
4:35 pm 16:35 Cloudy 18 -8 14 -10 86 86 WNW 15 24 29.89 1012 10 16.0934 N/A
4:55 pm 16:55 Cloudy 18 -8 12 -11 79 79 W 13 20 29.91 1013 10 16.0934 N/A
5:15 pm 17:15 Cloudy 18 -8 12 -11 79 79 W 14 22 29.91 1013 10 16.0934 N/A
5:35 pm 17:35 Cloudy 18 -8 12 -11 79 79 W 14 22 29.9 1013 10 16.0934 N/A
5:55 pm 17:55 Cloudy 18 -8 14 -10 86 86 WNW 23 37 29.9 1013 10 16.0934 N/A
6:15 pm 18:15 Cloudy 16 -9 12 -11 86 86 W 21 33 29.91 1013 10 16.0934 N/A
6:35 pm 18:35 Cloudy 16 -9 12 -11 86 86 WNW 18 30 29.92 1013 10 16.0934 N/A
6:55 pm 18:55 Cloudy 16 -9 12 -11 86 86 WNW 15 24 29.94 1014 10 16.0934 N/A
7:15 pm 19:15 Cloudy 16 -9 10 -12 79 79 WNW 14 22 29.94 1014 10 16.0934 N/A
7:35 pm 19:35 Cloudy 16 -9 12 -11 86 86 NW 12 19 29.95 1014 10 16.0934 N/A
7:55 pm 19:55 Cloudy 16 -9 12 -11 86 86 WNW 8 13 29.95 1014 10 16.0934 N/A
8:15 pm 20:15 Cloudy 16 -9 12 -11 86 86 NW 13 20 29.95 1014 7 11.26538 N/A
8:35 pm 20:35 Cloudy 16 -9 12 -11 86 86 WNW 13 20 29.95 1014 7 11.26538 N/A
8:55 pm 20:55 Cloudy 16 -9 12 -11 86 86 WNW 12 19 29.95 1014 10 16.0934 N/A
9:15 pm 21:15 Cloudy 16 -9 10 -12 79 79 WNW 13 20 29.95 1014 10 16.0934 N/A
9:35 pm 21:35 Cloudy 16 -9 10 -12 79 79 WNW 14 22 29.96 1015 10 16.0934 N/A
9:55 pm 21:55 Cloudy 16 -9 10 -12 79 79 WNW 10 17 29.97 1015 10 16.0934 N/A
10:15 pm 22:15 Cloudy 16 -9 10 -12 79 79 NW 8 13 29.97 1015 7 11.26538 N/A
10:35 pm 22:35 Cloudy 16 -9 12 -11 86 86 NW 10 17 29.97 1015 5 8.0467 N/A
10:55 pm 22:55 Cloudy 14 -10 12 -11 92 92 WNW 9 15 29.97 1015 5 8.0467 N/A
11:15 pm 23:15 Cloudy 14 -10 10 -12 85 85 NW 10 17 29.97 1015 10 16.0934 N/A
11:35 pm 23:35 Cloudy 14 -10 10 -12 85 85 WNW 10 17 29.96 1015 10 16.0934 N/A
11:55 pm 23:55 Cloudy 14 -10 10 -12 85 85 WNW 9 15 29.96 1015 10 16.0934 N/A

Powered by AerisWeather